Location: Monroe
(41.9160°N, 83.3980°W)
Time: 00:30:44
(UTC-05:00)

ISS - All Passes

Search period start: 26 February 2017 00:00
Search period end: 08 March 2017 00:00
Orbit: 399 x 408 km, 51.6° (Epoch: 26 February)

Date Brightness Start Highest point End Pass type
(mag) Time Alt. Az. Time Alt. Az. Time Alt. Az.
26 Feb - 07:06:29 10° S 07:08:36 16° SE 07:10:43 10° E daylight
26 Feb - 08:41:29 10° WSW 08:44:45 62° NNW 08:48:01 10° NE daylight
26 Feb - 10:19:18 10° WNW 10:21:42 18° NNW 10:24:07 10° NE daylight
26 Feb - 11:56:56 10° NNW 11:59:06 16° N 12:01:16 10° NE daylight
26 Feb - 13:33:07 10° NW 13:36:14 38° NNE 13:39:20 10° E daylight
26 Feb - 15:09:46 10° WNW 15:12:37 27° SW 15:15:27 10° SSE daylight
27 Feb - 07:48:56 10° SW 07:52:13 72° SE 07:55:31 10° ENE daylight
27 Feb - 09:26:14 10° WNW 09:28:57 23° NNW 09:31:41 10° NE daylight
27 Feb - 11:04:15 10° NW 11:06:17 15° N 11:08:19 10° NE daylight
27 Feb - 12:40:43 10° NW 12:43:34 26° NNE 12:46:25 10° E daylight
27 Feb - 14:16:59 10° WNW 14:20:12 53° SW 14:23:24 10° SE daylight
28 Feb - 06:56:42 10° SSW 06:59:45 36° SE 07:02:50 10° ENE daylight
28 Feb - 08:33:13 10° W 08:36:14 32° NNW 08:39:16 10° NE daylight
28 Feb - 10:11:22 10° NW 10:13:27 15° N 10:15:32 10° NE daylight
28 Feb - 11:48:17 10° NW 11:50:50 20° NNE 11:53:21 10° ENE daylight
28 Feb - 13:24:24 10° NW 13:27:42 80° NNE 13:30:58 10° ESE daylight
28 Feb - 15:02:23 10° WSW 15:03:43 12° SW 15:05:03 10° SSW daylight
01 Mar - 06:04:55 10° S 06:07:22 19° SE 06:09:50 10° E visible
01 Mar - 07:40:22 10° WSW 07:43:36 51° NNW 07:46:50 10° NE daylight
01 Mar - 09:18:19 10° NW 09:20:38 17° N 09:22:56 10° NNE daylight
01 Mar - 10:55:47 10° NNW 10:58:02 17° N 11:00:16 10° NE daylight
01 Mar - 12:31:55 10° NW 12:35:06 45° NNE 12:38:17 10° ESE daylight
01 Mar - 14:08:44 10° W 14:11:23 22° SW 14:14:01 10° S daylight
02 Mar - 05:14:35 10° SE 05:15:03 10° SE 05:15:30 10° ESE visible
02 Mar - 06:47:43 10° SW 06:51:00 88° SE 06:54:19 10° NE daylight
02 Mar - 08:25:11 10° WNW 08:27:49 21° NNW 08:30:27 10° NE daylight
02 Mar - 10:03:07 10° NW 10:05:11 15° N 10:07:13 10° NE daylight
02 Mar - 11:39:28 10° NW 11:42:25 29° NNE 11:45:21 10° E daylight
02 Mar - 13:15:49 10° WNW 13:18:58 43° SW 13:22:05 10° SSE daylight
03 Mar - 05:55:20 10° SSW 05:58:29 45° SE 06:01:39 10° ENE visible
03 Mar - 07:32:07 10° W 07:35:03 28° NNW 07:37:59 10° NE daylight
03 Mar - 09:10:15 10° NW 09:12:18 15° N 09:14:21 10° NE daylight
03 Mar - 10:47:00 10° NW 10:49:39 22° NNE 10:52:18 10° ENE daylight
03 Mar - 12:23:08 10° WNW 12:26:27 84° SW 12:29:44 10° SE daylight
04 Mar - 05:03:20 10° S 05:06:02 24° SE 05:08:45 10° E visible
04 Mar - 06:39:10 10° WSW 06:42:20 43° NNW 06:45:31 10° NE daylight
04 Mar - 08:17:12 10° NW 08:19:25 17° N 08:21:39 10° NNE daylight
04 Mar - 09:54:30 10° NNW 09:56:49 18° NNE 09:59:09 10° ENE daylight
04 Mar - 11:30:35 10° NW 11:33:50 53° NNE 11:37:04 10° ESE daylight
04 Mar - 13:07:40 10° W 13:10:02 18° SW 13:12:24 10° S daylight
05 Mar - 04:12:08 10° SSE 04:13:39 13° SE 04:15:10 10° ESE visible
05 Mar - 05:46:24 10° WSW 05:49:41 76° NNW 05:52:59 10° NE visible
05 Mar - 07:24:03 10° WNW 07:26:34 20° NNW 07:29:05 10° NE daylight
05 Mar - 09:01:51 10° NW 09:03:57 16° N 09:06:02 10° NE daylight
05 Mar - 10:38:06 10° NW 10:41:08 33° NNE 10:44:10 10° E daylight
05 Mar - 12:14:34 10° WNW 12:17:36 34° SW 12:20:37 10° SSE daylight
06 Mar - 04:53:53 10° SW 04:57:06 56° SE 05:00:20 10° ENE visible
06 Mar - 06:30:55 10° W 06:33:44 26° NNW 06:36:35 10° NE visible
06 Mar - 08:09:00 10° NW 08:11:02 15° N 08:13:04 10° NE daylight
06 Mar - 09:45:37 10° NW 09:48:21 24° NNE 09:51:05 10° ENE daylight
06 Mar - 11:21:48 10° WNW 11:25:04 68° SW 11:28:20 10° SE daylight
07 Mar - 04:01:42 10° SSW 04:04:35 29° SE 04:07:29 10° ENE visible
07 Mar - 05:37:52 10° W 05:40:58 37° NNW 05:44:05 10° NE visible
07 Mar - 07:15:58 10° NW 07:18:07 16° N 07:20:16 10° NNE daylight
07 Mar - 08:53:05 10° NW 08:55:30 19° NNE 08:57:55 10° ENE daylight
07 Mar - 10:29:10 10° NW 10:32:27 64° NNE 10:35:43 10° ESE daylight
07 Mar - 12:06:33 10° W 12:08:33 15° SW 12:10:33 10° S daylight
